Погода в Кличеве

Погода в Кличеве : погода сейчас, прогноз погоды и архив. Всё, что Вы хотите узнать о погоде в Кличеве!

Хотите узнать прогноз погоды в Кличеве? Тогда Вам сюда: Погода в Кличеве

Поиск расширенной информации на нашем сайте:

Другие новости

Новости СМИ2

Главная страница сайта

Новости сайта

03.07.2017

Напоминаем, что на нашем специализированном сайте Метеоцентр.Азия вы можете получить высокодетализированные автоматические прогнозы погоды по пунктам России, СНГ и мира в авиационном формате (включающие направление и скорость ветра, видимость, явления погоды, количество и форму облачности, нижнюю и верхнюю границу облачности).


Погода в Кличеве - сегодня

Время (UTC), дата Ветер
(°,м/с) 
Видим.   Явления Облачность Т
(°С)
Тd
(°С)
f(%) Тe
(°С)
Pmin
(гПа)
dP
(гПа)
Po
(мм)
O2
(г/м3)
Тmin Tmax R s Состояние
почвы
15 24.05.18 020 (С) 20000 м    6/6 900 м 
[Sc]
+19.6 +12.8 65 +25  1019.7  -1.2  751  280           
18 24.05.18 010 (С) 10 км    3/3 600 м 
[Sc]
+15.9 +12.5 80 +22  1020.1  0.1  751  284    +21.5       
21 24.05.18 020 (С) 4000 м  дымка  3/3 600 м 
[Sc]
+12.7 +11.3 91 +16  1020.6  0.3  752  287           
00 25.05.18 040 (СВ) 4000 м  дымка  3/3 600 м 
[Sc]
+12.3 +11.4 94 +16  1021.1  0.4  752  288           
06 25.05.18 060 (СВ) 20000 м    4/0 верхняя 
[Ci sp]
+18.9 +14.2 74 +26  1022.7  1.1  753  281  +9.8         
09 25.05.18 080 (В) 20000 м    3/3 600 м 
[Cu med, cong]
+23.2 +13.9 56 +30  1022.9  0.5  754  277           
12 25.05.18 060 (СВ) 20000 м    3/3 600 м 
[Cu med, cong]
+23.5 +11.5 47 +27  1023  0.1  754  278           
15 25.05.18 060 (СВ) 20000 м    3/3 600 м 
[Cu med, cong]
+23.7 +10.7 44 +26  1023.1  0.1  754  278           
18 25.05.18 070 (В) 10 км    ясно 
+20.3 +12.5 61 +25  1024.1  0.7  754  281    +25.1       
21 25.05.18 080 (В) 10 км    ясно 
+15.6 +11.6 77 +19  1026.4  756  286           
00 26.05.18 080 (В) 10 км    ясно 
+12.6 +8.7 77 +13  1027.9  1.2  757  290           
09 26.05.18 110 (В) 20000 м    ясно 
+19.9 +6.9 43 +21  1029.7  0.2  759  284           
12 26.05.18 100 (В) 20000 м    ясно 
+21.5 +6.2 37 +22  1029.1  -0.5  758  282           
15 26.05.18 090 (В) 20000 м    ясно 
+21.5 +6.6 38 +22  1027.7  -1.3  757  282           
18 26.05.18 120 (ЮВ) 20000 м    ясно 
+18.4 +6.3 45 +20  1028.1  0.1  757  285    +22.1       
21 26.05.18 080 (В) 10 км    ясно 
+10.6 +6.7 77 +12  1029.1  0.5  758  293           
00 27.05.18 140 (ЮВ) 10 км    ясно 
+11.1 +6 71 +12  1029.3  0.2  758  292           
03 27.05.18 тихо ()   4000 м  дымка  3/0 верхняя 
[Ci sp]
+7.9 +6.7 92 +8  1028.9  -0.6  757  295           
06 27.05.18 140 (ЮВ) 20000 м    3/0 верхняя 
[Ci sp]
+17.3 +6.8 50 +19  1028.7  0.4  758  286  +6.1         
09 27.05.18 210 (ЮЗ) 20000 м    1/0 верхняя 
[Ci sp]
+21.1 +5.4 36 +21  1027.8  -0.6  757  282           
12 27.05.18 110 (В) 20000 м    ясно 
+22.6 +5.5 33 +23  1026.2  -1.4  756  281           
15 27.05.18 320 (СЗ) 20000 м    ясно 
+23.3 +5.2 31 +23  1024.9  -1.3  755  280           
18 27.05.18 тихо ()   20000 м    1/0 верхняя 
[Ci sp]
+19 +10.3 57 +20  1024.5  -0.7  755  282    +24.6       
21 27.05.18 тихо ()   4000 м  дымка  ясно 
+9.7 +8.3 91 +10  1025.6  0.5  755  292           
00 28.05.18 тихо ()   4000 м  дымка  ясно 
+7.1 +6.4 95 +7  1026.6  0.8  756  296           
Время (UTC), дата Ветер
(°,м/с) 
Видим.   Явления Облачность Т
(°С)
Тd
(°С)
f(%) Тe
(°С)
Pmin
(гПа)
dP
(гПа)
Po
(мм)
O2
(г/м3)
Тmin Tmax R s Состояние
почвы

Для получения пояснительной информации подведите курсор к названию столбца.

ПОГОДА в Кличеве - архив

Всё, что Вы хотите узнать о погоде в Кличеве - удобно и подробно!

Выберите нужную дату (начиная с 1 января 2015* года) и нажмите кнопку "Найти".
Будут отображены архивные сводки погоды по пункту Кличев, начиная с указанной даты.


Отображать данные в формате CSV (для использования в таблицах Excel)


Внимание! Наш архив погоды предназначен исключительно для личного некоммерческого использования в познавательных целях. Если Вам необходимы официальные справки о состоянии погоды (для производственных, юридических, коммерческих и т.п. целей), обращайтесь в органы Росгидромета.

*Примечание: данная дата относится к архиву по метеостанциям СССР (Россия, СНГ, Балтия).
Архив по метеостанциям Зарубежной Европы и Азии (кроме Китая) хранится 10 дней, по другим регионам земного шара (Китай, Африка, Америка, Австралия, Океания) - 1 день.

Кличев - район местоположения метеостанции


Название, широта, долгота, высота метеостанции:
Кличев 53.5°ш. 29.3°д. 155 м над ур. моря [Беларусь]

Дополнительная информация

В oтличие oт бoльшинства пoгoдных сайтoв мы публикуем пoдрoбную метеoинфoрмацию в детальнoм прoфессиoнальнoм фoрмате.

Характеристики температуры и влажнoсти вoздуха измеряются на высoте 2 м в тени вдали oт зданий и деревьев.
Скoрoсть ветра измеряется на высoте 10 м (на урoвне рoста челoвека скoрoсть ветра ниже в 1.5-2 раза). Если метеoстанция нахoдится в гoрoде или в лесу, тo скoрoсть ветра занижена на 2-4 м/с пo сравнению с oткрытым местoм. Скoрoсть ветра над акватoриями крупных рек и oзёр, а также на вершинах хoлмoв на 2-5 м/с выше, чем в oбычных услoвиях.
Атмoсфернoе давление в разных тoчках местнoсти мoжет значительнo oтличаться oт давления на метеoстанции, в зависимoсти oт услoвий рельефа (при пoдъёме на 10 м давление пoнижается примернo на 1 мм рт.ст.).